Location: Aranbee
(34.0885°N, 118.2342°W)
Time: 23:02:09
(UTC+00:00)

A-11 Canister half - Visible Passes

Search period start: 29 July 2021 00:00
Search period end: 08 August 2021 00:00
Orbit: 1513 x 1687 km, 47.2° (Epoch: 29 July)

Date Brightness Start Highest point End Pass type
(mag) Time Alt. Az. Time Alt. Az. Time Alt. Az.
29 Jul 10.3 04:19:28 10° WNW 04:28:41 39° N 04:38:02 10° ENE visible
29 Jul 9.7 06:25:55 10° NW 06:35:48 52° NNE 06:41:24 28° E visible
29 Jul 9.2 08:31:14 10° WNW 08:39:30 59° W 08:39:30 59° W visible
30 Jul 10.3 03:56:24 10° WNW 04:05:36 39° N 04:14:57 10° ENE visible
30 Jul 9.7 06:02:56 10° NW 06:12:45 51° NNE 06:18:41 26° E visible
30 Jul 9.2 08:08:14 10° WNW 08:16:48 63° W 08:16:48 63° W visible
31 Jul 10.3 03:33:19 10° WNW 03:42:30 39° N 03:51:53 10° ENE visible
31 Jul 9.8 05:39:57 10° NW 05:49:43 49° NNE 05:56:08 23° E visible
31 Jul 9.1 07:45:15 10° NW 07:54:16 70° W 07:54:16 70° W visible
01 Aug 10.3 03:10:15 10° WNW 03:19:26 39° N 03:28:48 10° ENE visible
01 Aug 9.8 05:16:58 10° NW 05:26:40 48° NNE 05:33:42 20° E visible
01 Aug 9.0 07:22:16 10° NW 07:31:51 77° W 07:31:51 77° W visible
01 Aug 10.9 09:29:11 10° WNW 09:29:59 12° W 09:29:59 12° W visible
02 Aug 9.9 04:53:58 10° NW 05:03:36 46° NNE 05:11:22 17° E visible
02 Aug 8.9 06:59:18 10° NW 07:09:31 84° SW 07:09:31 84° SW visible
02 Aug 10.8 09:05:58 10° WNW 09:07:39 15° W 09:07:39 15° W visible
03 Aug 9.9 04:30:59 10° NW 04:40:32 45° NNE 04:49:06 14° E visible
03 Aug 8.9 06:36:20 10° NW 06:46:34 88° SW 06:47:15 81° SE visible
03 Aug 10.6 08:42:46 10° WNW 08:45:24 17° W 08:45:24 17° W visible
04 Aug 9.9 04:07:59 10° NW 04:17:28 44° NNE 04:26:55 11° E visible
04 Aug 9.0 06:13:22 10° NW 06:23:36 88° NE 06:25:04 71° ESE visible
04 Aug 10.5 08:19:36 10° WNW 08:23:13 21° W 08:23:13 21° W visible
05 Aug 10.0 03:45:00 10° NW 03:54:24 43° NNE 04:03:57 10° E visible
05 Aug 9.0 05:50:25 10° NW 06:00:37 84° NE 06:02:56 60° ESE visible
05 Aug 10.4 07:56:27 10° WNW 08:01:06 25° W 08:01:06 25° W visible
06 Aug 10.0 03:22:00 10° WNW 03:31:20 42° NNE 03:40:50 10° E visible
06 Aug 9.1 05:27:27 10° NW 05:37:39 80° NE 05:40:52 51° ESE visible
06 Aug 10.2 07:33:22 10° WNW 07:39:02 29° W 07:39:02 29° W visible
07 Aug 10.1 02:58:59 10° WNW 03:08:15 41° N 03:17:42 10° E visible
07 Aug 9.1 05:04:30 10° NW 05:14:40 77° NNE 05:18:51 42° ESE visible
07 Aug 10.0 07:10:16 10° WNW 07:17:01 34° WSW 07:17:01 34° WSW visible
